Location: Ingoldesthorpe
(52.8667°N, 0.5167°E)
Time: 14:34:41
(UTC+00:00)

Cosmos 783 Rocket - Pass Details

Date: 19 May 2025
Orbit: 753 x 777 km, 74.1° (Epoch: 17 June)

Event Time Altitude Azimuth Distance (km) Brightness Sun altitude
Exits shadow 22:47:03 17° 204° (SSW) 1,855 6.1 -15.7°
Maximum altitude 22:51:07 90° 143° (SE) 766 4.4 -15.9°
Drops below altitude 10° 22:56:22 10° 26° (NNE) 2,308 7.7 -16.1°
Sets 22:58:45 0° 26° (NNE) 3,242 8.6 -16.2°
